2023/03/23 00:00:00,16.4,10.0
2023/03/23 00:10:00,16.3, 9.3
2023/03/23 00:20:00,16.0, 9.6
2023/03/23 00:30:00,16.0, 9.2
2023/03/23 00:40:00,15.9, 9.8
2023/03/23 00:50:00,16.0,10.2
2023/03/23 01:00:00,16.1, 9.5
2023/03/23 01:10:00,15.9, 9.7
2023/03/23 01:20:00,15.7, 9.9
2023/03/23 01:30:00,15.7, 9.9
2023/03/23 01:40:00,15.6, 9.8
2023/03/23 01:50:00,15.5, 9.8
2023/03/23 02:00:00,15.3, 9.9
2023/03/23 02:10:00,14.8,10.4
2023/03/23 02:20:00,14.6,10.1
2023/03/23 02:30:00,14.9,10.2
2023/03/23 02:40:00,15.1,10.4
2023/03/23 02:50:00,14.7,10.2
2023/03/23 03:00:00,14.7,10.5
2023/03/23 03:10:00,14.7,10.3
2023/03/23 03:20:00,14.6, 9.9
2023/03/23 03:30:00,14.5, 9.7
2023/03/23 03:40:00,14.4, 9.6
2023/03/23 03:50:00,14.1,10.3
2023/03/23 04:00:00,14.1,10.1
2023/03/23 04:10:00,14.1, 9.9
2023/03/23 04:20:00,14.1,10.0
2023/03/23 04:30:00,14.0,10.3
2023/03/23 04:40:00,13.8,10.8
2023/03/23 04:50:00,13.1,10.1
2023/03/23 05:00:00,13.0,10.8
2023/03/23 05:10:00,12.9,10.8
2023/03/23 05:20:00,12.7,10.8
2023/03/23 05:30:00,12.6,10.9
2023/03/23 05:40:00,12.6,10.6
2023/03/23 05:50:00,13.0,10.7
2023/03/23 06:00:00,12.7,10.5
2023/03/23 06:10:00,12.4,10.2
2023/03/23 06:20:00,12.1, 9.5
2023/03/23 06:30:00,12.1,10.3
2023/03/23 06:40:00,11.8,10.8
2023/03/23 06:50:00,11.5,10.9
2023/03/23 07:00:00,11.4,11.0
2023/03/23 07:10:00,11.4,11.0
2023/03/23 07:20:00,11.7,11.0
2023/03/23 07:30:00,11.9,11.1
2023/03/23 07:40:00,11.6,11.1
2023/03/23 07:50:00,11.6,11.1
2023/03/23 08:00:00,11.4,11.5
2023/03/23 08:10:00,11.5,11.7
2023/03/23 08:20:00,11.3,11.6
2023/03/23 08:30:00,11.3,11.5
2023/03/23 08:40:00,10.6,11.6
2023/03/23 08:50:00,10.5,11.5
2023/03/23 09:00:00,10.5,11.3
2023/03/23 09:10:00,10.6,11.6
2023/03/23 09:20:00,10.7,11.7
2023/03/23 09:30:00,10.7,11.7
2023/03/23 09:40:00,10.8,12.0
2023/03/23 09:50:00,10.3,12.0
2023/03/23 10:00:00,10.2,11.9
2023/03/23 10:10:00,10.1,12.1
2023/03/23 10:20:00,10.0,12.4
2023/03/23 10:30:00, 9.8,12.6
2023/03/23 10:40:00, 9.8,12.4
2023/03/23 10:50:00, 9.7,12.6
2023/03/23 11:00:00, 9.9,12.8
2023/03/23 11:10:00,10.0,13.1
2023/03/23 11:20:00, 9.7,13.2
2023/03/23 11:30:00, 9.5,13.2
2023/03/23 11:40:00, 9.4,14.8
2023/03/23 11:50:00, 9.2,12.8
2023/03/23 12:00:00, 9.1,12.8
2023/03/23 12:10:00, 9.0,12.9
2023/03/23 12:20:00, 8.7,12.8
2023/03/23 12:30:00, 8.8,12.8
2023/03/23 12:40:00, 8.7,12.9
2023/03/23 12:50:00, 8.2,12.7
2023/03/23 13:00:00, 7.7,12.3
2023/03/23 13:10:00, 7.2,12.0
2023/03/23 13:20:00, 6.6,11.9
2023/03/23 13:30:00, 6.3,11.8
2023/03/23 13:40:00, 6.3,12.3
2023/03/23 13:50:00, 6.1,12.1
2023/03/23 14:00:00, 5.2,12.5
2023/03/23 14:10:00, 3.4,12.3
2023/03/23 14:20:00, 3.3,12.3
2023/03/23 14:30:00, 2.2,12.4
2023/03/23 14:40:00, 2.0,11.9
2023/03/23 14:50:00, 2.0,11.6
2023/03/23 15:00:00, 1.9,11.7
2023/03/23 15:10:00, 1.7,11.4
2023/03/23 15:20:00, 1.4,11.6
2023/03/23 15:30:00, 1.1,11.7
2023/03/23 15:40:00, 1.3,11.1
2023/03/23 15:50:00, 1.2,11.0
2023/03/23 16:00:00, 1.4,11.1
2023/03/23 16:10:00, 0.6,10.9
2023/03/23 16:20:00, 0.2,11.0
2023/03/23 16:30:00, 0.0,11.2
2023/03/23 16:40:00, 0.0,11.7
2023/03/23 16:50:00, 0.0,10.9
2023/03/23 17:00:00, 0.0,11.3
2023/03/23 17:10:00, 0.0,10.6
2023/03/23 17:20:00, 0.0,10.2
2023/03/23 17:30:00, 0.0,10.9
2023/03/23 17:40:00, 0.0,10.6
2023/03/23 17:50:00, 0.0,10.2
2023/03/23 18:00:00, 0.0,10.3
2023/03/23 18:10:00, 0.0,10.3
2023/03/23 18:20:00, 0.0,10.2
2023/03/23 18:30:00, 0.0,10.0
2023/03/23 18:40:00, 0.0,10.3
2023/03/23 18:50:00, 0.0,10.0
2023/03/23 19:00:00, 0.0, 9.9
2023/03/23 19:10:00, 0.0, 9.9
2023/03/23 19:20:00, 0.0,10.2
2023/03/23 19:30:00, 0.0, 9.9
2023/03/23 19:40:00, 0.0,10.0
2023/03/23 19:50:00, 0.0,10.1
2023/03/23 20:00:00, 0.0, 9.8
2023/03/23 20:10:00, 0.0, 9.8
2023/03/23 20:20:00, 0.0, 9.9
2023/03/23 20:30:00, 0.0,10.0
2023/03/23 20:40:00, 0.0, 9.9
2023/03/23 20:50:00, 0.0, 9.7
2023/03/23 21:00:00, 0.0, 9.9
2023/03/23 21:10:00, 0.0, 9.7
2023/03/23 21:20:00, 0.0, 9.6
2023/03/23 21:30:00, 0.0, 9.5
2023/03/23 21:40:00, 0.0, 9.8
2023/03/23 21:50:00, 0.0, 9.6
2023/03/23 22:00:00, 0.0, 9.6
2023/03/23 22:10:00, 0.0, 9.7
2023/03/23 22:20:00, 0.0, 9.6
2023/03/23 22:30:00, 0.0, 9.8
2023/03/23 22:40:00, 0.0, 8.5
2023/03/23 22:50:00, 0.0, 9.3
2023/03/23 23:00:00, 0.0, 9.5
2023/03/23 23:10:00, 0.0, 9.2
2023/03/23 23:20:00, 0.0, 9.2
2023/03/23 23:30:00, 0.0, 9.3
2023/03/23 23:40:00, 0.0, 9.3
2023/03/23 23:50:00, 0.0, 9.4
